{"data":{"norad_id":44058,"epoch":"2026-09-20T04:46:08.746176Z","epoch_age_seconds":40557,"freshness":"FRESH","line1":"1 44058U 19010B   26263.19871234 -.00000015  00000+0 -73708-4 0  9992","line2":"2 44058  87.9153 209.9186 0001842  69.0769 291.0559 13.16593421364114","mean_motion":13.16593421,"eccentricity":0.0001842,"inclination_deg":87.9153,"raan_deg":209.9186,"arg_perigee_deg":69.0769,"mean_anomaly_deg":291.0559,"bstar":-7.3708e-5,"rev_number":36411,"period_min":109.37317299567,"perigee_km":1196.3643938764,"apogee_km":1199.1553542848,"semimajor_km":7575.8968740806,"source":"CELESTRAK","updated_at":"2026-09-20T09:00:44.543487Z"}}